Regional Weather Roundup
Issued by NWS Grand Forks, ND

Home | Current Version | Previous Version | Graphics & Text | Print | Product List | Glossary On
Versions: 1 2 3 4 5 6 7 8 9 10 11 12 13 14 15 16 17 18 19 20 21 22 23 24 25 26 27 28 29 30 31 32 33 34 35 36 37 38 39 40 41 42 43 44 45 46 47 48 49 50
184
ASUS43 KFGF 241510
RWRFGF
PRAIRIE TO PINES  WEATHER ROUNDUP
NATIONAL WEATHER SERVICE EASTERN NORTH DAKOTA/GRAND FORKS ND
1000 AM CDT SAT JUN 24 2017

 **SATELLITE DATA USED TO AUGMENT SKY COVER AT AUTOMATED STATIONS**
 *****  WEATHER ACROSS EASTERN NORTH DAKOTA  *****

CITY           SKY/WX    TMP DP  RH WIND       PRES   REMARKS
GRAND FORKS    PTSUNNY   56  45  66 NW15      30.00S
GRAND FRKS AFB PTSUNNY   57  45  64 NW15      30.01R
DEVILS LAKE    CLOUDY    53  42  66 NW22      30.07R
FARGO          CLOUDY    56  48  74 NW10      30.03R
WAHPETON ARPT  FAIR      54  41  62 NW14      30.05R
$$

 ***** WEATHER ACROSS CENTRAL AND WESTERN NORTH DAKOTA  *****

CITY           SKY/WX    TMP DP  RH WIND       PRES   REMARKS
BISMARCK       CLOUDY    55  39  54 N15G25    30.18R
MINOT          CLOUDY    50  41  71 NW23G30   30.17R
JAMESTOWN      PTSUNNY   54  41  61 NW20G30   30.08R
MINOT AFB      CLOUDY    50  41  71 NW20G30   30.16R
GARRISON         N/A     50  39  66 NW17G30   30.19R
WILLISTON      FAIR      55  38  52 N20       30.28R
DICKINSON      FAIR      55  31  39 NW22G32   30.22R
HETTINGER      FAIR      59  33  37 N18       30.25R
$$

 *****  OTHER AIRPORT OBSERVATIONS IN OUR AREA  *****

CITY           SKY/WX    TMP DP  RH WIND       PRES   REMARKS
WALHALLA       NOT AVBL
GRAFTON AIRPOR CLOUDY    54  46  76 W18G25    30.02R
VALLEY CITY AR PTSUNNY   54  46  76 NW21      30.08S
CANDO          NOT AVBL
CAVALIER APRT  NOT AVBL
GWINNER        MOSUNNY   57  43  58 NW17G25   30.07
SHEYENNE NWR     N/A     58  44  60 NW9       29.95S
ROLLA            N/A     46  46 100 NW23G30   30.09  FOG
 ***** THE ABOVE OBSERVATIONS ARE NON NWS ARE NOT QUALITY
       CONTROLLED AND MAY MIS-REPORT RAIN FOR SNOW...
$$

  *****  WEATHER ACROSS NORTHERN MINNESOTA  *****

CITY           SKY/WX    TMP DP  RH WIND       PRES   REMARKS
FLAG ISLAND    CLOUDY    52  46  82 W10       29.92R
WARROAD        CLOUDY    54  48  82 W9        29.95R
ROSEAU         CLOUDY    52  46  82 W9G18     29.95S HAZE
HALLOCK        CLOUDY    54  48  82 NW16      29.97S
THF RVR FALLS  PTSUNNY   54  45  71 NW14G20   29.99S
BAUDETTE       PTSUNNY   53  48  83 NW13      29.93R
WASKISH        CLOUDY    57  48  72 W8        29.94S
CROOKSTON      PTSUNNY   55  46  71 NW14      30.01R
STEPHEN NDAWN    N/A     54  45  71 NW14        N/A
GREENBUSH NDAW   N/A     52  46  82 W12         N/A
$$
  *****  WEATHER ACROSS CENTRAL AND WEST MINNESOTA  *****

CITY           SKY/WX    TMP DP  RH WIND       PRES   REMARKS
FOSSTON        CLOUDY    50  46  87 W12G17    29.99S
BEMIDJI        CLOUDY    56  44  66 W10       29.96S
PARK RAPIDS    CLOUDY    57  42  57 NW14G20   29.98R
ELBOW LAKE     FAIR      54  44  68 NW10G18   30.04S
WADENA         PTSUNNY   54  43  66 NW12      29.99S
DETROIT LAKES  PTSUNNY   52  43  71 NW17      30.02R
MOORHEAD       FAIR      54  48  82 NW10      30.04S
FERGUS FALLS   FAIR      54  45  71 NW18      30.02R
MORRIS MN      FAIR      57  45  62 W13       30.03F
STAPLES        FAIR      55  43  62 W12       29.99S
$$
  *****  WEATHER ELSEWHERE ACROSS MINNESOTA  *****

CITY           SKY/WX    TMP DP  RH WIND       PRES   REMARKS
DULUTH         CLOUDY    55  48  77 NW13G23   29.90S
INTRNTL FALLS    N/A     58  48  69 NW12      29.91R
ELY            CLOUDY    54  52  94 NW7       29.89R
CLOQUET        CLOUDY    57  45  62 NW13      29.93R
WHEATON        FAIR      59  39  47 NW15G21   30.06S
BRAINERD       FAIR      57  43  59 NW13      29.98S
HIBBING        CLOUDY    55  48  77 NW14      29.91S
ALEXANDRIA     CLOUDY    55  43  63 NW15      30.03S
SAINT CLOUD    FAIR      61  43  51 W13       30.01S
MINNEAPOLIS    FAIR      63  41  44 NW21      30.02R
$$

  *****  WEATHER ACROSS SOUTH DAKOTA  *****

CITY           SKY/WX    TMP DP  RH WIND       PRES   REMARKS
SIOUX FALLS    FAIR      64  46  52 W10G18    30.11F
BROOKINGS      FAIR      63  41  44 W23       30.07F
WATERTOWN      CLOUDY    55  42  61 W8        30.07S
HURON          PTSUNNY   61  43  51 NW21      30.12R
SISSETON         N/A     59  45  59 NW20      30.05S
ABERDEEN       FAIR      59  41  51 NW20G26   30.12R
MITCHELL       FAIR      68  38  33 W21G28    30.13S
PIERRE         FAIR      62  39  42 NW18      30.19R
MOBRIDGE       FAIR      61  36  39 NW21      30.14S
RAPID CITY     FAIR      68  31  25 N18G24    30.27R
$$

  *****  SOME WEATHER IN NEARBY STATES *****

CITY           SKY/WX    TMP DP  RH WIND       PRES   REMARKS
GLASGOW MT     FAIR      56  35  45 CALM      30.31R
GREAT FALLS MT FAIR      58  41  53 W5        30.35S
CHEYENNE WY    CLOUDY    56  32  40 VRB3      30.37R
SCOTTSBLUFF NE CLOUDY    62  37  39 CALM      30.31S
OMAHA NE       FAIR      69  44  40 W8        30.18S
DES MOINES IA  FAIR      69  41  36 NW14      30.13R
DAVENPORT IA   FAIR      67  51  56 W13       30.05R
CHICAGO IL     PTSUNNY   69  54  58 W8        29.95S
EAU CLAIRE WI  FAIR      61  42  49 W16G23    29.96F
LA CROSSE WI   PTSUNNY   67  50  54 NW16G23   29.99R
$$

  *****  SOME NATIONAL WEATHER *****

CITY           SKY/WX    TMP DP  RH WIND       PRES   REMARKS
LA GUARDIA NY  PTSUNNY   80  71  74 NW10      29.64R
RALEIGH NC     PTSUNNY   85  71  63 SW8       29.95R HX  90
ATLANTA GA     CLOUDY    76  74  93 W7        30.03R
NEW ORLEANS LA PTSUNNY   85  78  80 W3        30.03R HX  96
OKLAHOMA CITY  PTSUNNY   73  53  49 E12       30.22R
ALBUQUERQUE NM CLOUDY    73  53  49 E16       30.27S
SALT LAKE CITY FAIR      72  39  30 S5        30.21R
LOS ANGELES CA CLOUDY    62  60  93 W12       29.91R FOG
BOISE ID       FAIR      63  40  42 W5        30.20R
SEATTLE WA     FAIR      68  53  58 N8        30.15S
$$

*** WEATHER ACROSS MANITOBA...SASKATCHEWAN AND ONTARIO ***
                ***ONTARIO***

CITY           SKY/WX    TMP DP  RH WIND       PRES   REMARKS
GERALDTON      PTSUNNY   59  54  82 CALM      29.84R
THUNDER BAY    PTSUNNY   66  54  63 SE7       29.82S
SIOUX LOOKOUT  PTSUNNY   61  55  82 VRB3      29.87R
TORONTO        MOSUNNY   72  52  49 W16       29.75R
BIG TROUT LK   CLOUDY    46  39  76 N6        30.00R
PICKLE LAKE    PTSUNNY   57  43  58 N6        29.90R
DRYDEN         CLOUDY    54  54 100 W7        29.88R
KENORA         LGT RAIN  50  50 100 W5        29.91R
$$
                *** MANITOBA***

CITY           SKY/WX    TMP DP  RH WIND       PRES   REMARKS
BRANDON        LGT RAIN  50  48  93 NW13G18   30.10R
DAUPHIN        CLOUDY    54  48  82 N15G21    30.13R
ISLAND LAKE    PTSUNNY   52  37  58 N14       30.08R
PILOT MOUND      N/A     48  45  87 NW17G23     N/A
THE PAS        LGT RAIN  48  45  87 W7        30.20R
THOMPSON       PTSUNNY   55  36  47 NW3       30.12S
WINNIPEG       LGT RAIN  52  50  93 N21G28    29.95R
LYNN LAKE      CLOUDY    57  36  44 NW8       30.16R
CHURCHILL      MOSUNNY   45  39  81 N14       30.06R
GILLAM         CLOUDY    59  37  44 NW7       30.06S
$$
                ***SASKATCHEWAN***

CITY           SKY/WX    TMP DP  RH WIND       PRES   REMARKS
ESTEVAN        PTSUNNY   48  43  81 NW17G24   30.25R
KINDERSLEY     MOSUNNY   59  45  58 NW6       30.27S
LLOYDMINSTER   MOSUNNY   59  46  63 S5        30.24F
PRINCE ALBERT  MOSUNNY   55  43  62 W6        30.27R
REGINA         MOSUNNY   52  41  66 N13       30.29R
YORKTON        PTSUNNY   52  41  66 N17G25    30.22R
N. BATTLEFORD  MOSUNNY   55  43  62 SW5       30.27S
LA RONGE       PTSUNNY   55  43  62 N2        30.23R
SASKATOON      MOSUNNY   55  45  67 W7        30.27S
SWIFT CURRENT  SUNNY     55  45  67 W6        30.29R
$$
NOTE: THESE ARE AUTOMATED STATIONS WITH LIMITED QUALITY CONTROL
      "FAIR" INDICATES FEW OR NO CLOUDS BELOW 12,000 FEET WITH NO
      SIGNIFICANT WEATHER AND/OR OBSTRUCTIONS TO VISIBILITY.
      SKY/WX - SKY CONDITION AND SIGNIFICANT WEATHER.
      TMP - AIR TEMPERATURE.    DP   - DEWPOINT TEMPERATURE.
      RH  - RELATIVE HUMIDITY.  PRES - PRESSURE.
      HX  - HEAT INDEX.         WCI  - WIND CHILL INDEX.
$




USA.gov is the U.S. government's official web portal to all federal, state and local government web resources and services.